This demonstration page uses our WeatherBlox Daily Observations layout. Learn more.

Left ArrowRight Arrow

Hourly Observations for April 29, 2022

Temp ( °F °C ) Dew Point ( °F °C ) Humidity (%) Winds ( mph kmh ) Pressure ( in mb ) Visibility ( mi km ) Precip ( " mm )
3:53 am 03:53 Clear 61 16.1 55 12.8 81 81 SSE 15 24 29.55 1001 10 16 0.00 0.00
4:53 am 04:53 Mostly Clear 61 16.1 57 13.9 87 87 SSE 16 26 29.56 1001 10 16 0.00 0.00
5:48 am 05:48 Mostly Clear 61 16 57 14 88 88 S 13 20 29.54 1000 10 16 0.00 0.00
5:53 am 05:53 Clear 61 16.1 57 13.9 87 87 S 16 26 29.53 1000 10 16 0.00 0.00
6:53 am 06:53 Mostly Sunny 59 15 56 13.3 90 90 SE 8 13 29.56 1001 10 16 0.00 0.00
7:53 am 07:53 Mostly Sunny 60 15.6 56 13.3 86 86 E 10 17 29.55 1001 10 16 0.00 0.00
8:53 am 08:53 Mostly Sunny 62 16.7 54 12.2 75 75 ESE 14 22 29.53 1000 10 16 0.00 0.00
9:53 am 09:53 Sunny 68 20 53 11.7 59 59 SE 15 24 29.50 999 10 16 0.00 0.00
10:18 am 10:18 Mostly Cloudy 69 20.6 53 11.7 57 57 SSE 12 19 29.48 998 10 16 0.00 0.00
10:32 am 10:32 Cloudy 69 20.6 53 11.7 57 57 SSE 10 17 29.47 998 10 16 0.00 0.00
10:53 am 10:53 Cloudy 71 21.7 53 11.7 53 53 SSE 14 22 29.49 999 10 16 0.00 0.00
11:53 am 11:53 Mostly Cloudy 73 22.8 57 13.9 57 57 SSE 15 24 29.47 998 10 16 0.00 0.00
12:53 pm 12:53 Cloudy 71 21.7 58 14.4 63 63 SSE 15 24 29.46 998 10 16 0.00 0.00
1:53 pm 13:53 Mostly Cloudy 74 23.3 59 15 60 60 SSE 15 24 29.43 997 10 16 0.00 0.00
2:53 pm 14:53 Mostly Cloudy 74 23.3 58 14.4 57 57 SE 9 15 29.42 996 10 16 0.00 0.00
3:53 pm 15:53 Cloudy 73 22.8 59 15 62 62 SE 14 22 29.41 996 10 16 0.00 0.00
4:53 pm 16:53 Mostly Sunny 74 23.3 59 15 60 60 E 16 26 29.36 994 10 16 0.00 0.00
5:53 pm 17:53 Sunny with Nearby Thunderstorms 70 21.1 60 15.6 71 71 E 13 20 29.32 993 10 16 0.00 0.00
6:17 pm 18:17 Partly Cloudy with Thunderstorms 69 20.6 60 15.6 73 73 E 12 19 29.34 994 9 14 0.00 0.00
6:30 pm 18:30 Mostly Cloudy with Strong Thunderstorms 57 13.9 51 10.6 81 81 NW 38 61 29.52 1000 2 3 0.15 3.81
6:37 pm 18:37 Mostly Cloudy with Strong Thunderstorms 52 11.1 49 9.4 89 89 NNW 36 57 29.53 1000 1 2 0.29 7.37
6:45 pm 18:45 Cloudy with Nearby Thunderstorms 51 10.6 49 9.4 92 92 N 40 65 29.49 999 2 3 0.34 8.64
6:51 pm 18:51 Cloudy with Nearby Thunderstorms 52 11 48 9 88 88 N 31 50 29.50 999 3 5 0.35 8.89
6:53 pm 18:53 Cloudy with Nearby Thunderstorms 51 10.6 50 10 96 96 N 29 46 29.50 999 4 6 0.35 8.89
7:08 pm 19:08 Cloudy with Thunderstorms 51 10.6 51 10.6 100 100 N 29 46 29.54 1000 4 6 0.04 1.02
7:18 pm 19:18 Cloudy with Thunderstorms 50 10 50 10 100 100 N 20 31 29.54 1000 4 6 0.06 1.52
7:44 pm 19:44 Cloudy with Thunderstorms 52 11.1 52 11.1 100 100 NNE 17 28 29.54 1000 2 3 0.10 2.54
7:53 pm 19:53 Cloudy with Thunderstorms 52 11.1 52 11.1 100 100 NNE 18 30 29.51 999 3 5 0.10 2.54
8:20 pm 20:20 Cloudy with Nearby Thunderstorms 54 12 50 10 88 88 N 15 24 29.54 1000 10 16 0.00 0.00
8:36 pm 20:36 Cloudy with Light Rain 53 11.7 51 10.6 93 93 N 20 31 29.54 1000 9 14 0.04 1.02
8:53 pm 20:53 Partly Cloudy 53 11.7 51 10.6 93 93 NNW 18 30 29.51 999 10 16 0.05 1.27
9:53 pm 21:53 Clear 53 11.7 50 10 89 89 NW 10 17 29.50 999 10 16 0.00 0.00
10:53 pm 22:53 Clear 52 11.1 50 10 93 93 NW 10 17 29.47 998 10 16 0.00 0.00
11:49 pm 23:49 Mostly Cloudy 54 12 50 10 88 88 WNW 13 20 29.50 999 10 16 0.00 0.00
11:53 pm 23:53 Mostly Cloudy 53 11.7 50 10 89 89 WNW 12 19 29.48 998 10 16 0.00 0.00

Powered by AerisWeather